Location: Altamira
(10.5079°N, 66.8544°W)
Time: 17:20:48
(UTC+00:00)

SL-8 R/B - Pass Details

Date: 13 December 2025
Orbit: 647 x 656 km, 48.4° (Epoch: 14 January)

Event Time Altitude Azimuth Distance (km) Brightness Sun altitude
Rises 22:37:01 0° 226° (SW) 2,950 8.5 -7.5°
Reaches altitude 10° 22:39:22 10° 229° (SW) 2,042 7.6 -8.1°
Maximum altitude 22:44:02 64° 310° (NW) 719 4.0 -9.1°
Drops below altitude 10° 22:48:43 10° 32° (NNE) 2,047 5.7 -10.2°
Enters shadow 22:49:09 - 33° (NNE) 2,216 5.9 -10.3°
